TimeCDT,TemperatureF,Dew PointF,Humidity,Sea Level PressureIn,VisibilityMPH,Wind Direction,Wind SpeedMPH,Gust SpeedMPH,PrecipitationIn,Events,Conditions,WindDirDegrees,DateUTC
12:15 AM,79.2,73.0,81,30.08,7.0,ESE,6.9,-,N/A,,Clear,120,2012-10-12 05:15:00
12:35 AM,78.8,72.9,82,30.08,7.0,SE,6.9,-,N/A,,Clear,130,2012-10-12 05:35:00
1:15 AM,77.7,72.5,84,30.08,7.0,ESE,4.6,-,N/A,,Clear,120,2012-10-12 06:15:00
1:35 AM,76.6,72.1,86,30.08,7.0,ESE,3.5,-,N/A,,Clear,110,2012-10-12 06:35:00
1:55 AM,76.1,71.6,86,30.08,7.0,ESE,4.6,-,N/A,,Clear,120,2012-10-12 06:55:00
2:15 AM,75.7,71.8,87,30.08,7.0,ESE,3.5,-,N/A,,Clear,120,2012-10-12 07:15:00
2:35 AM,75.2,71.6,89,30.07,7.0,ESE,3.5,-,N/A,,Clear,120,2012-10-12 07:35:00
3:15 AM,74.7,71.6,90,30.06,7.0,Calm,Calm,-,N/A,,Clear,0,2012-10-12 08:15:00
3:35 AM,74.7,71.6,90,30.06,7.0,Calm,Calm,-,N/A,,Clear,0,2012-10-12 08:35:00
3:55 AM,74.5,71.4,90,30.06,7.0,Calm,Calm,-,N/A,,Mostly Cloudy,0,2012-10-12 08:55:00
4:15 AM,74.7,71.6,90,30.05,7.0,Calm,Calm,-,N/A,,Mostly Cloudy,0,2012-10-12 09:15:00
4:35 AM,74.8,71.6,90,30.05,7.0,East,3.5,-,N/A,,Clear,100,2012-10-12 09:35:00
4:55 AM,74.7,71.6,90,30.05,7.0,Calm,Calm,-,N/A,,Clear,0,2012-10-12 09:55:00
5:15 AM,74.1,70.9,90,30.05,5.0,ESE,3.5,-,N/A,,Clear,110,2012-10-12 10:15:00
5:55 AM,74.1,71.4,91,30.06,5.0,ESE,4.6,-,N/A,,Clear,120,2012-10-12 10:55:00
6:15 AM,75.2,72.5,91,30.06,7.0,ESE,5.8,-,N/A,,Clear,110,2012-10-12 11:15:00
6:35 AM,75.2,72.3,91,30.07,7.0,ESE,5.8,-,N/A,,Clear,120,2012-10-12 11:35:00
6:55 AM,75.2,72.5,91,30.07,7.0,ESE,5.8,-,N/A,,Clear,120,2012-10-12 11:55:00
7:15 AM,75.7,72.9,91,30.08,7.0,SE,4.6,-,N/A,,Scattered Clouds,130,2012-10-12 12:15:00
7:35 AM,75.6,72.7,91,30.08,7.0,ESE,4.6,-,N/A,,Scattered Clouds,120,2012-10-12 12:35:00
7:55 AM,75.2,72.5,91,30.09,5.0,ESE,3.5,-,N/A,,Clear,120,2012-10-12 12:55:00
8:15 AM,76.1,73.4,91,30.10,5.0,Calm,Calm,-,N/A,,Clear,0,2012-10-12 13:15:00
8:35 AM,78.1,75.2,91,30.10,10.0,SE,4.6,-,N/A,,Clear,130,2012-10-12 13:35:00
8:55 AM,79.7,76.1,89,30.11,10.0,SE,6.9,-,N/A,,Scattered Clouds,140,2012-10-12 13:55:00
9:15 AM,82.4,76.1,81,30.11,10.0,SE,11.5,-,N/A,,Clear,140,2012-10-12 14:15:00
9:35 AM,84.2,75.4,75,30.11,10.0,SE,11.5,-,N/A,,Clear,140,2012-10-12 14:35:00
9:55 AM,84.4,74.5,72,30.12,5.0,SE,12.7,-,N/A,,Haze,130,2012-10-12 14:55:00
10:15 AM,83.3,74.3,74,30.12,7.0,SE,12.7,-,N/A,,Mostly Cloudy,140,2012-10-12 15:15:00
10:35 AM,85.3,74.5,70,30.12,7.0,SE,11.5,-,N/A,,Overcast,130,2012-10-12 15:35:00
10:55 AM,87.4,74.5,65,30.12,7.0,SE,11.5,18.4,N/A,,Overcast,140,2012-10-12 15:55:00
11:15 AM,89.4,73.6,59,30.11,7.0,SE,13.8,20.7,N/A,,Mostly Cloudy,130,2012-10-12 16:15:00
11:35 AM,89.1,74.1,61,30.11,7.0,SE,11.5,16.1,N/A,,Scattered Clouds,130,2012-10-12 16:35:00
11:55 AM,90.1,72.1,55,30.10,5.0,SE,15.0,21.9,N/A,,Haze,130,2012-10-12 16:55:00
12:15 PM,90.3,72.0,55,30.09,10.0,SE,16.1,-,N/A,,Mostly Cloudy,130,2012-10-12 17:15:00
12:35 PM,92.8,70.3,48,30.08,7.0,SE,12.7,18.4,N/A,,Mostly Cloudy,140,2012-10-12 17:35:00
12:55 PM,92.7,70.0,47,30.07,7.0,SE,15.0,-,N/A,,Mostly Cloudy,130,2012-10-12 17:55:00
1:55 PM,93.4,69.4,45,30.04,7.0,SE,9.2,-,N/A,,Scattered Clouds,130,2012-10-12 18:55:00
2:15 PM,94.1,69.8,45,30.02,7.0,SE,15.0,18.4,N/A,,Mostly Cloudy,140,2012-10-12 19:15:00
2:55 PM,93.7,68.2,43,30.01,7.0,SSE,13.8,17.3,N/A,,Scattered Clouds,150,2012-10-12 19:55:00
3:15 PM,94.8,67.6,41,30.00,7.0,SSE,15.0,23.0,N/A,,Scattered Clouds,160,2012-10-12 20:15:00
3:35 PM,94.1,69.3,44,30.00,7.0,SE,15.0,24.2,N/A,,Scattered Clouds,140,2012-10-12 20:35:00
3:55 PM,95.2,68.9,42,29.99,7.0,SE,16.1,21.9,N/A,,Scattered Clouds,140,2012-10-12 20:55:00
4:15 PM,96.1,68.9,41,29.99,7.0,SSE,19.6,-,N/A,,Scattered Clouds,150,2012-10-12 21:15:00
4:35 PM,95.2,69.4,43,29.99,7.0,SE,19.6,25.3,N/A,,Scattered Clouds,130,2012-10-12 21:35:00
4:55 PM,94.8,68.5,42,29.99,7.0,SE,20.7,29.9,N/A,,Clear,130,2012-10-12 21:55:00
5:15 PM,94.5,68.2,42,29.99,7.0,SE,18.4,25.3,N/A,,Clear,130,2012-10-12 22:15:00
5:55 PM,92.3,70.3,49,29.99,5.0,SE,18.4,24.2,N/A,,Haze,130,2012-10-12 22:55:00
6:15 PM,91.6,70.3,50,30.00,7.0,SE,19.6,26.5,N/A,,Clear,130,2012-10-12 23:15:00
6:35 PM,89.8,71.6,55,30.01,7.0,SE,20.7,25.3,N/A,,Scattered Clouds,130,2012-10-12 23:35:00
6:55 PM,88.7,71.2,56,30.01,7.0,SE,18.4,25.3,N/A,,Scattered Clouds,130,2012-10-12 23:55:00
7:15 PM,87.4,72.5,61,30.02,7.0,SE,15.0,-,N/A,,Clear,140,2012-10-13 00:15:00
7:35 PM,86.2,72.5,64,30.02,7.0,SE,13.8,21.9,N/A,,Scattered Clouds,140,2012-10-13 00:35:00
7:55 PM,85.3,73.0,67,30.03,7.0,ESE,13.8,18.4,N/A,,Scattered Clouds,120,2012-10-13 00:55:00
8:15 PM,85.1,73.2,67,30.04,7.0,SE,13.8,-,N/A,,Clear,130,2012-10-13 01:15:00
8:35 PM,84.4,73.2,69,30.04,7.0,SE,16.1,-,N/A,,Clear,130,2012-10-13 01:35:00